Date,TemperatureHighF,TemperatureAvgF,TemperatureLowF,DewpointHighF,DewpointAvgF,DewpointLowF,HumidityHigh,HumidityAvg,HumidityLow,PressureMaxIn,PressureMinIn,WindSpeedMaxMPH,WindSpeedAvgMPH,GustSpeedMaxMPH,PrecipitationSumIn
2013-1-1,21.0,6.2,-9.0,19.3,1.1,-15.9,93,79,71,30.23,29.97,11,2,11,0.00
2013-1-2,23.0,20.7,18.0,21.5,18.3,14.8,94,90,85,30.04,29.90,15,3,15,0.00
2013-1-3,22.0,16.4,13.0,19.5,11.8,6.3,90,82,70,30.22,30.01,15,3,16,0.00
2013-1-4,30.0,22.1,14.0,22.1,16.7,7.7,90,80,68,30.09,29.94,14,2,15,0.00
2013-1-5,25.0,16.9,7.0,18.3,12.0,1.6,90,81,71,30.05,29.81,11,2,13,0.00
2013-1-6,24.0,18.8,13.0,18.8,13.1,5.3,91,79,66,30.19,29.94,15,3,16,0.00
2013-1-7,37.0,29.6,19.0,29.5,24.9,15.2,89,83,73,29.95,29.82,18,4,20,0.00
2013-1-8,37.0,27.3,14.0,32.1,23.9,8.3,98,87,78,29.94,29.71,17,3,17,0.01
2013-1-9,34.0,30.6,23.0,30.7,24.8,18.0,92,79,69,30.31,29.84,31,4,31,0.00
2013-1-10,42.0,34.7,24.0,34.7,28.6,20.1,99,79,55,30.26,29.71,17,4,18,0.28
2013-1-11,41.0,37.6,35.0,39.7,37.3,33.7,99,99,99,29.72,29.34,15,4,15,0.07
2013-1-12,38.0,18.1,7.0,37.7,12.5,-0.5,99,79,69,30.04,29.36,23,5,28,0.00
2013-1-13,11.0,6.8,3.0,5.2,1.5,-2.6,83,78,74,30.18,29.99,10,2,10,0.00
2013-1-14,13.0,9.0,3.0,8.0,3.5,-2.0,83,78,69,30.36,30.17,10,2,10,0.00
2013-1-15,28.0,19.2,7.0,21.4,13.5,2.4,92,79,63,30.22,29.76,16,4,16,0.00
2013-1-16,35.0,26.8,13.0,34.7,18.4,-2.6,99,72,44,30.20,29.61,12,4,12,0.01
2013-1-17,20.0,14.0,10.0,13.4,4.6,-3.7,83,66,52,30.35,30.19,11,2,11,0.00
2013-1-18,39.0,28.2,18.0,34.6,25.0,13.2,96,88,78,30.23,29.69,10,3,10,0.01
2013-1-19,38.0,23.1,4.0,34.2,18.8,-3.0,99,84,61,30.17,29.64,25,4,37,0.00
2013-1-20,10.0,3.9,-1.0,1.5,-3.7,-8.4,76,70,59,30.36,30.15,17,3,20,0.00
2013-1-21,-1.0,-4.9,-9.0,-7.6,-12.8,-17.3,73,68,63,30.29,30.21,17,3,18,0.00
2013-1-22,6.0,-2.7,-11.0,-1.1,-10.6,-18.3,72,68,62,30.34,30.17,8,2,9,0.00
2013-1-23,16.0,6.9,-4.0,9.5,-1.0,-15.0,84,70,53,30.56,30.09,23,4,25,0.00
2013-1-24,13.0,3.0,-6.0,5.1,-6.0,-15.3,72,65,61,30.62,30.09,15,3,15,0.00
2013-1-25,19.0,13.9,5.0,14.4,6.7,-2.9,83,73,64,30.27,29.88,23,4,26,0.00
2013-1-26,25.0,13.0,0.0,17.6,5.4,-7.3,80,72,61,30.30,30.06,14,2,15,0.00
2013-1-27,34.0,29.5,24.0,32.7,24.9,15.6,99,84,70,30.08,29.77,15,2,15,0.00
2013-1-28,36.0,32.7,29.0,35.7,32.5,28.8,99,99,99,29.88,29.63,12,1,12,0.09
2013-1-29,37.0,33.1,28.0,34.7,31.1,23.5,99,93,83,29.74,29.51,19,4,19,0.13
2013-1-30,28.0,18.6,9.0,23.8,13.8,3.5,87,81,75,29.73,29.63,25,5,25,0.00
2013-1-31,9.0,3.1,-6.0,5.2,-3.0,-13.5,84,75,68,30.21,29.72,21,5,21,0.00
2013-2-1,5.0,-2.0,-10.0,1.5,-9.0,-16.6,85,72,58,30.25,30.01,13,2,13,0.00
2013-2-2,12.0,7.2,2.0,7.1,1.4,-3.8,85,77,62,30.14,29.94,6,2,6,0.00
2013-2-3,16.0,11.8,5.0,9.1,5.9,0.4,86,77,65,30.04,29.92,14,2,15,0.00
2013-2-4,16.0,11.4,4.0,13.6,3.4,-5.5,90,70,60,30.04,29.69,14,2,16,0.00
2013-2-5,29.0,21.9,7.0,27.7,16.9,1.0,99,82,58,30.04,29.60,17,3,17,0.00
2013-2-6,25.0,17.2,5.0,23.5,13.9,-0.9,94,87,76,30.06,29.90,11,3,11,0.00
2013-2-7,29.0,26.1,24.0,26.8,24.3,22.0,99,93,82,30.23,29.96,17,5,18,0.00
2013-2-8,29.0,22.9,11.0,23.5,16.3,5.8,92,76,63,30.34,30.15,15,2,16,0.00
2013-2-9,33.0,29.8,23.0,32.5,28.2,18.2,99,94,85,30.17,29.90,21,5,22,0.00
2013-2-10,34.0,30.8,28.0,33.7,30.2,27.2,99,98,92,29.91,29.30,12,3,12,0.01
2013-2-11,32.0,26.6,18.0,31.8,22.9,12.2,99,86,75,30.00,29.33,18,2,20,0.00
2013-2-12,34.0,25.0,15.0,26.3,20.0,9.5,89,81,71,30.00,29.75,14,3,15,0.05
2013-2-13,40.0,30.4,23.0,33.7,26.9,19.2,99,87,71,29.77,29.55,11,2,12,0.07
2013-2-14,33.0,26.5,16.0,32.7,18.3,2.7,99,74,36,30.13,29.59,13,2,13,0.00
2013-2-15,18.0,12.4,6.0,7.2,3.9,-0.5,81,69,57,30.26,30.12,8,3,8,0.00
2013-2-16,21.0,10.5,3.0,9.1,2.9,-4.1,82,71,56,30.20,30.05,7,1,7,0.00
2013-2-17,33.0,21.8,2.0,25.3,15.7,-4.4,85,77,67,30.07,29.60,22,4,23,0.03
2013-2-18,34.0,24.9,11.0,33.2,20.6,4.2,97,83,74,29.78,29.48,23,4,23,0.01
2013-2-19,11.0,7.2,3.0,6.9,-0.2,-5.8,83,71,61,30.31,29.77,22,5,22,0.00
2013-2-20,16.0,5.5,-9.0,5.4,-2.8,-16.1,79,68,59,30.41,30.30,9,2,9,0.00
2013-2-21,24.0,13.8,-1.0,19.3,6.5,-7.8,89,73,58,30.43,30.06,13,4,14,0.00
2013-2-22,29.0,24.7,21.0,24.2,21.5,17.3,98,88,74,30.07,29.82,12,4,12,0.00
2013-2-23,36.0,27.0,18.0,28.5,22.8,13.7,95,85,71,29.93,29.78,9,2,9,0.06
2013-2-24,36.0,22.9,7.0,27.2,16.7,0.8,86,77,66,30.07,29.91,8,1,8,0.00
2013-2-25,36.0,26.3,15.0,27.9,20.3,9.1,89,78,67,30.09,29.99,7,1,8,0.00
2013-2-26,37.0,26.3,15.0,30.5,22.4,9.1,99,85,74,30.03,29.86,12,4,15,0.00
2013-2-27,40.0,32.4,29.0,28.8,26.8,23.6,92,80,59,30.01,29.84,22,5,22,0.00
2013-2-28,32.0,29.1,24.0,25.6,22.2,16.9,80,75,69,30.20,30.00,17,4,17,0.00
2013-3-1,29.0,24.7,16.0,19.8,17.4,10.4,80,74,64,30.32,30.19,10,4,10,0.00
2013-3-2,31.0,20.5,4.0,17.8,10.5,-3.0,85,67,40,30.32,30.13,10,2,10,0.00
2013-3-3,35.0,26.6,17.0,17.3,11.9,5.6,77,55,39,30.13,29.94,15,3,16,0.00
2013-3-4,28.0,26.6,25.0,24.5,18.6,9.0,94,73,47,30.01,29.91,16,3,16,0.00
2013-3-5,31.0,26.6,23.0,28.1,24.6,20.0,98,92,82,30.26,29.93,12,1,12,0.00
2013-3-6,28.0,22.3,9.0,21.2,17.1,2.7,90,80,70,30.38,30.25,10,2,10,0.00
2013-3-7,34.0,20.1,2.0,23.5,12.5,-3.8,89,73,59,30.35,30.22,14,2,15,0.09
2013-3-8,40.0,30.1,16.0,33.1,25.0,10.9,89,81,71,30.27,30.03,12,3,13,0.24
2013-3-9,38.0,36.2,34.0,37.7,35.5,31.5,99,98,84,30.06,29.66,15,3,16,0.60
2013-3-10,36.0,33.5,30.0,35.7,31.2,25.1,99,91,85,29.95,29.77,23,8,23,0.01
2013-3-11,33.0,28.6,25.0,26.6,24.6,19.4,91,85,73,29.87,29.72,18,5,20,0.00
2013-3-12,31.0,26.0,23.0,21.8,17.8,11.3,83,71,50,30.15,29.78,22,4,23,0.00
2013-3-13,32.0,23.5,14.0,20.1,15.4,9.8,86,72,52,30.33,30.15,9,2,9,0.00
2013-3-14,41.0,32.5,25.0,33.0,27.2,17.9,94,81,69,30.20,29.97,9,2,9,0.20
2013-3-15,35.0,31.2,24.0,33.7,29.2,20.8,99,92,82,29.99,29.82,15,4,15,0.06
2013-3-16,25.0,20.7,12.0,22.0,13.8,2.8,94,75,59,30.20,29.88,16,4,16,0.00
2013-3-17,29.0,18.3,4.0,18.2,7.9,-3.7,75,64,50,30.23,29.84,18,4,19,0.01
2013-3-18,30.0,24.4,15.0,29.8,19.3,7.2,99,81,66,29.85,29.56,23,5,24,0.00
2013-3-19,26.0,16.0,9.0,11.6,5.6,-0.9,79,64,43,30.14,29.75,20,5,22,0.00
2013-3-20,23.0,14.3,7.0,9.2,3.3,-2.0,73,61,52,30.16,30.05,19,4,22,0.00
2013-3-21,27.0,15.8,-1.0,14.5,5.5,-7.8,77,64,52,30.09,30.00,8,2,8,0.00
2013-3-22,36.0,21.8,3.0,22.9,11.8,-4.0,79,66,48,30.07,29.98,9,1,10,0.03
2013-3-23,39.0,29.5,15.0,25.1,19.0,9.1,79,65,47,30.13,30.03,8,2,8,0.00
2013-3-24,34.0,30.8,29.0,28.4,24.1,21.1,90,76,67,30.07,29.96,20,4,21,0.00
2013-3-25,37.0,31.0,23.0,24.6,20.8,15.3,78,66,53,30.18,30.01,17,4,19,0.00
2013-3-26,41.0,33.5,27.0,27.5,23.3,17.3,78,67,42,30.26,30.16,10,2,10,0.00
2013-3-27,42.0,34.6,26.0,25.4,21.7,17.9,79,61,39,30.30,30.25,6,2,6,0.00
2013-3-28,46.0,34.1,19.0,27.4,22.0,14.1,82,63,38,30.32,30.22,12,2,12,0.00
2013-3-29,51.0,39.7,27.0,40.4,32.7,22.2,94,76,60,30.25,30.02,14,3,16,0.01
2013-3-30,51.0,42.8,36.0,46.2,40.1,33.6,99,91,63,30.04,29.81,14,3,15,0.58
2013-3-31,38.0,33.4,25.0,34.9,27.0,14.5,99,79,45,30.06,29.76,24,4,25,0.00
2013-4-1,34.0,26.3,18.0,19.1,15.7,12.0,80,65,47,30.22,30.05,16,4,16,0.00
2013-4-2,35.0,27.9,19.0,22.4,16.9,13.5,81,64,44,30.31,30.19,12,2,13,0.00
2013-4-3,46.0,34.3,18.0,34.3,23.6,12.6,81,66,43,30.35,29.98,22,4,25,0.00
2013-4-4,46.0,41.7,33.0,36.2,30.8,23.3,86,66,49,30.14,29.93,19,4,20,0.00
2013-4-5,43.0,34.9,26.0,35.0,26.0,19.1,96,72,43,30.22,29.88,17,3,18,0.00
2013-4-6,50.0,40.5,36.0,43.5,36.7,31.4,99,87,65,29.88,29.51,20,4,20,0.13
2013-4-7,48.0,40.1,35.0,39.8,36.0,31.9,99,86,71,29.93,29.72,14,2,15,0.14
2013-4-8,43.0,40.1,38.0,42.7,39.4,37.1,100,97,93,30.04,29.67,12,3,12,0.36
2013-4-9,44.0,38.5,34.0,38.4,30.0,21.5,94,73,51,30.16,29.97,23,7,29,0.36
2013-4-10,40.0,37.0,33.0,27.9,23.0,19.1,66,57,49,30.17,29.88,20,6,20,0.36
2013-4-11,37.0,33.8,29.0,33.4,28.1,16.3,94,81,46,29.91,29.68,18,6,18,0.11
2013-4-12,37.0,32.1,29.0,31.1,28.0,24.6,94,85,68,29.83,29.66,13,4,14,0.18
2013-4-13,37.0,32.6,28.0,29.2,26.2,21.4,93,78,60,29.93,29.78,11,2,12,0.22
2013-4-14,35.0,32.3,26.0,33.4,28.4,21.0,94,86,71,29.93,29.49,20,4,21,0.56
2013-4-15,39.0,36.2,33.0,34.4,31.3,27.7,94,82,73,29.94,29.48,25,5,30,0.59
2013-4-16,44.0,38.2,34.0,31.1,29.1,26.1,82,70,51,30.29,29.92,9,3,9,0.59
2013-4-17,42.0,36.7,32.0,34.2,30.4,26.3,94,78,67,30.29,29.91,17,4,18,0.01
2013-4-18,34.0,32.9,32.0,32.5,31.4,29.5,94,94,94,29.94,29.50,22,6,23,0.02
2013-4-19,38.0,33.6,31.0,31.5,25.4,11.1,94,74,44,29.95,29.46,25,5,28,0.11
2013-4-20,41.0,32.2,20.0,21.8,13.3,3.5,75,47,25,30.26,29.93,11,2,12,0.11
2013-4-21,46.0,39.4,33.0,43.4,34.4,18.6,94,83,55,30.26,29.97,27,4,27,0.35
2013-4-22,42.0,37.2,33.0,38.4,31.6,23.3,94,81,51,30.20,30.08,20,5,22,0.35
2013-4-23,41.0,35.3,29.0,31.5,25.8,17.6,94,70,40,30.14,30.01,14,3,15,0.43
2013-4-24,51.0,37.4,27.0,35.8,29.0,20.4,92,74,37,30.04,29.85,26,3,26,0.47
2013-4-25,49.0,41.0,32.0,33.9,30.0,23.9,92,67,40,30.17,29.93,15,3,15,0.47
2013-4-26,68.0,55.6,44.0,44.8,36.8,26.9,74,52,23,30.11,29.91,17,3,17,0.47
2013-4-27,72.0,57.0,37.0,45.0,32.4,-3.4,88,48,5,30.12,29.85,15,2,17,0.47
2013-4-28,77.0,63.6,52.0,53.3,46.1,38.6,83,56,30,29.86,29.63,22,5,23,0.49
2013-4-29,73.0,60.8,49.0,55.7,40.0,21.8,83,50,17,29.82,29.53,14,3,15,0.03
2013-4-30,69.0,63.5,55.0,60.4,42.1,3.7,85,52,10,29.93,29.39,22,4,22,0.03
2013-5-1,55.0,43.2,36.0,34.8,30.3,25.1,89,62,41,30.45,29.93,17,4,19,0.14
2013-5-2,45.0,40.0,36.0,28.7,26.1,23.1,70,58,45,30.51,30.38,19,6,19,0.14
2013-5-3,38.0,35.0,32.0,34.3,29.1,23.0,94,79,60,30.38,30.13,21,6,23,0.16
2013-5-4,45.0,38.4,33.0,41.4,36.1,30.9,94,91,85,30.17,30.10,11,5,11,0.19
2013-5-5,64.0,49.1,38.0,48.9,42.0,35.0,94,78,57,30.17,30.03,10,3,10,0.19
2013-5-6,73.0,58.3,43.0,49.4,44.4,39.4,89,63,33,30.11,29.98,9,2,9,0.19
2013-5-7,78.0,63.8,48.0,53.3,43.5,31.2,91,55,21,30.05,29.92,14,2,15,0.19
2013-5-8,76.0,62.7,54.0,56.4,50.6,42.3,92,68,33,30.01,29.92,15,2,15,0.07
2013-5-9,58.0,51.9,43.0,55.7,46.4,27.0,94,82,53,30.10,29.94,22,6,22,0.08
2013-5-10,65.0,51.1,36.0,38.7,23.3,-8.4,71,41,7,30.12,29.83,15,3,15,0.08
2013-5-11,57.0,46.4,41.0,37.6,23.9,12.9,60,42,25,30.15,29.83,29,6,32,0.08
2013-5-12,57.0,46.1,34.0,26.8,16.0,-10.5,61,35,7,30.20,30.04,15,3,17,0.08
2013-5-13,69.0,53.1,34.0,44.2,32.6,18.3,73,48,21,30.09,29.63,22,4,25,0.02
2013-5-14,91.0,69.2,47.0,52.8,34.8,-29.7,82,43,1,29.70,29.46,25,3,30,0.02
2013-5-15,79.0,67.8,52.0,47.5,38.7,18.5,65,38,11,29.91,29.67,20,3,20,0.02
2013-5-16,80.0,68.4,51.0,47.8,31.8,-2.4,79,34,7,29.93,29.80,13,3,14,0.02
2013-5-17,67.0,60.3,56.0,56.1,46.1,-2.4,91,65,6,30.00,29.88,13,3,13,0.09
2013-5-18,77.0,64.1,55.0,69.5,60.1,52.1,94,87,67,30.02,29.78,17,3,19,0.66
2013-5-19,79.0,67.9,62.0,70.2,64.6,59.3,94,89,67,29.80,29.55,22,3,24,1.42
2013-5-20,71.0,65.3,58.0,65.9,61.0,56.3,94,86,72,29.60,29.49,20,3,22,1.99
2013-5-21,58.0,51.1,46.0,56.3,49.4,43.4,94,94,94,29.73,29.51,14,3,14,2.22
2013-5-22,52.0,48.4,44.0,50.3,46.1,42.4,94,92,79,29.99,29.68,16,4,18,2.23
2013-5-23,61.0,51.9,44.0,44.1,32.9,16.4,90,54,18,30.31,29.98,18,3,18,2.23
2013-5-24,68.0,54.4,38.0,54.3,38.7,29.2,94,60,27,30.36,30.16,15,2,19,2.67
2013-5-25,66.0,58.1,53.0,53.3,48.6,41.6,94,73,48,30.24,30.17,22,3,23,2.72
2013-5-26,61.0,56.7,51.0,46.9,42.1,32.8,82,59,37,30.20,30.01,17,2,17,2.72
2013-5-27,61.0,58.1,56.0,54.4,49.7,44.1,87,74,62,30.04,29.82,12,2,12,2.72
2013-5-28,59.0,56.9,54.0,57.3,54.5,50.3,94,92,84,29.83,29.71,7,1,7,2.76
2013-5-29,76.0,65.7,56.0,70.6,61.6,54.3,94,87,64,29.83,29.63,15,2,17,2.86
2013-5-30,75.0,68.1,63.0,68.2,64.0,61.2,94,87,65,29.68,29.51,27,3,27,3.18
2013-5-31,77.0,67.7,62.0,64.2,57.5,50.1,94,72,46,29.56,29.48,23,4,27,3.58
2013-6-1,69.0,60.1,52.0,59.7,53.3,42.5,91,78,63,29.93,29.52,21,2,21,3.58
2013-6-2,56.0,51.2,49.0,44.0,41.5,37.7,75,69,57,30.07,29.91,14,2,15,3.58
2013-6-4,61.0,57.5,54.0,53.3,51.1,47.1,94,80,67,30.08,30.02,15,2,15,3.60
2013-6-5,58.0,55.4,52.0,56.3,53.7,49.3,94,94,94,30.03,29.93,8,1,8,0.30
2013-6-6,56.0,52.4,49.0,53.7,50.4,47.3,94,93,90,30.03,29.96,10,2,10,0.30
2013-6-7,61.0,56.2,52.0,56.1,52.8,49.0,94,89,76,30.04,29.89,6,1,6,0.30
2013-6-8,70.0,62.2,54.0,58.4,54.2,50.8,94,77,56,29.92,29.86,12,1,12,0.30
2013-6-9,63.0,58.9,56.0,60.3,56.2,51.9,94,91,72,29.89,29.77,12,2,12,0.44
2013-6-10,69.0,62.6,58.0,66.2,60.4,55.3,94,93,83,29.86,29.78,5,1,5,0.44
2013-6-11,74.0,65.0,54.0,71.8,63.2,51.3,94,94,90,29.89,29.78,5,1,5,0.46
2013-6-12,73.0,64.6,59.0,66.6,58.6,48.9,94,82,57,29.93,29.77,14,2,14,0.67
2013-6-13,74.0,66.0,57.0,57.6,52.8,47.9,86,64,45,30.09,29.91,11,2,11,0.67
2013-6-14,76.0,67.5,55.0,61.9,57.5,51.2,89,71,53,30.07,29.84,15,2,15,0.67
2013-6-15,74.0,68.5,62.0,69.5,65.0,58.8,94,89,70,29.91,29.83,9,1,9,1.93
2013-6-16,80.0,68.1,56.0,62.0,54.1,41.1,94,66,27,29.91,29.80,21,1,21,1.95
2013-6-17,77.0,67.5,59.0,60.2,55.6,46.4,90,67,46,30.02,29.84,11,1,11,1.95
2013-6-18,72.0,62.4,50.0,57.3,50.8,39.8,84,66,51,30.09,29.99,9,1,9,1.95
2013-6-19,81.0,69.7,57.0,64.8,58.4,52.2,90,69,42,30.04,29.92,10,1,10,1.95
2013-6-20,86.0,76.0,66.0,71.5,64.7,58.1,89,69,47,30.00,29.85,14,1,14,1.95
2013-6-21,78.0,71.4,64.0,69.2,65.7,61.2,94,83,66,30.05,29.71,25,1,25,2.09
2013-6-22,78.0,70.5,65.0,71.9,67.4,62.2,94,90,76,29.98,29.81,9,1,9,0.39
2013-6-23,79.0,72.9,67.0,71.4,68.0,62.7,94,85,67,29.87,29.66,14,2,14,1.48
2013-6-24,80.0,71.9,62.0,72.7,66.7,59.7,94,84,68,29.90,29.78,7,1,7,1.48
2013-6-25,84.0,74.8,65.0,72.9,67.8,61.6,94,80,58,29.83,29.70,10,1,10,1.48
2013-6-26,84.0,77.5,71.0,77.1,70.6,62.5,94,81,58,29.81,29.64,13,1,13,1.48
2013-6-27,82.0,74.3,67.0,66.9,59.2,49.2,93,63,33,29.81,29.76,17,1,17,1.48
2013-6-28,76.0,69.4,64.0,65.0,60.1,55.0,94,73,57,29.81,29.74,23,2,23,0.02
2013-6-29,74.0,67.4,62.0,63.6,57.5,46.5,94,73,42,29.99,29.74,17,2,17,0.25
2013-6-30,79.0,68.3,58.0,61.4,52.6,42.3,85,61,28,30.11,29.98,6,1,6,0.25
2013-7-1,81.0,70.5,61.0,62.7,56.3,44.1,89,65,29,30.19,30.09,10,1,10,0.25
2013-7-2,79.0,69.7,60.0,60.4,51.9,42.4,78,56,31,30.15,30.02,7,1,7,0.25
2013-7-3,81.0,69.7,59.0,59.0,53.4,44.1,87,60,29,30.06,29.92,7,1,7,0.00
2013-7-4,84.0,73.1,61.0,63.9,55.8,49.2,80,58,30,29.95,29.84,7,2,7,0.00
2013-7-5,87.0,78.8,71.0,62.8,57.9,52.5,61,49,35,29.89,29.77,14,3,14,0.00
2013-7-6,83.0,78.2,73.0,74.8,64.2,57.8,79,62,50,29.87,29.78,7,2,7,0.00
2013-7-7,88.0,79.0,70.0,72.9,67.6,61.2,94,69,50,29.89,29.80,9,1,9,0.41
2013-7-8,80.0,69.5,60.0,71.6,65.7,58.3,94,88,72,30.02,29.88,9,1,9,0.42
2013-7-9,81.0,73.3,67.0,75.7,69.0,62.3,94,87,67,29.97,29.72,15,2,15,1.43
2013-7-10,77.0,69.8,62.0,64.2,57.0,48.9,83,65,41,30.04,29.90,17,1,17,1.43
2013-7-11,82.0,71.4,59.0,66.0,57.8,52.1,93,66,37,30.10,29.94,7,1,7,1.43
2013-7-12,87.0,78.0,69.0,62.7,57.5,53.1,67,50,36,30.01,29.86,14,3,14,1.43
2013-7-13,79.0,73.3,68.0,73.5,66.4,54.9,94,80,47,30.06,29.89,12,2,12,2.82
2013-7-14,82.0,74.7,70.0,73.3,66.0,59.1,88,75,58,30.17,30.02,9,1,9,0.01
2013-7-15,85.0,76.2,67.0,70.7,67.5,63.6,94,76,52,30.23,30.14,7,1,7,0.01
2013-7-16,88.0,80.5,73.0,74.8,71.8,67.9,92,76,57,30.20,30.13,10,1,10,0.01
2013-7-17,89.0,80.6,71.0,73.9,70.8,67.3,89,73,52,30.23,30.06,11,1,11,0.01
2013-7-18,91.0,83.1,75.0,74.3,70.9,66.8,88,68,48,30.09,29.72,24,2,24,0.01
2013-7-19,83.0,77.5,69.0,70.6,63.2,54.4,84,62,45,29.89,29.69,17,2,17,0.02
2013-7-20,75.0,69.3,64.0,64.3,58.2,51.0,91,70,46,29.95,29.84,10,1,10,0.03
2013-7-21,76.0,67.6,59.0,67.3,59.5,48.3,85,75,65,29.95,29.78,7,1,7,0.03
2013-7-22,81.0,73.3,67.0,72.8,63.6,51.7,89,73,49,29.85,29.66,14,2,14,0.03
2013-7-23,72.0,66.1,59.0,56.1,51.8,46.7,79,61,44,30.01,29.82,12,2,12,0.03
2013-7-24,72.0,64.8,57.0,59.8,56.2,49.9,87,74,55,30.07,29.93,4,1,4,0.03
2013-7-25,76.0,68.9,62.0,67.1,62.5,58.3,92,81,66,29.96,29.88,9,1,9,0.05
2013-7-26,68.0,62.6,56.0,61.4,53.5,42.8,88,72,58,30.07,29.88,23,2,23,0.06
2013-7-27,59.0,55.4,52.0,54.2,48.2,43.2,89,77,62,30.07,29.91,14,2,14,0.08
2013-7-28,68.0,59.0,51.0,54.1,50.0,44.7,85,73,53,30.04,29.92,11,1,11,0.08
2013-7-29,73.0,63.3,51.0,59.7,54.1,46.0,93,73,51,30.11,30.02,6,1,6,0.09
2013-7-30,68.0,64.3,60.0,66.2,62.4,58.3,94,94,87,30.09,30.02,4,1,4,0.71
2013-7-31,74.0,66.2,60.0,67.6,59.3,50.1,94,80,49,30.06,29.94,12,1,12,0.71
2013-8-1,76.0,65.5,54.0,61.0,55.5,49.0,90,71,48,30.01,29.83,6,1,6,0.71
2013-8-2,73.0,65.3,57.0,60.1,53.9,46.1,90,69,41,30.03,29.82,12,1,12,0.71
2013-8-3,72.0,63.2,53.0,58.4,50.8,42.7,90,67,37,30.17,30.00,10,1,10,0.71
2013-8-4,72.0,62.8,53.0,58.3,52.8,47.3,88,71,50,30.22,29.96,6,1,6,0.71
2013-8-5,74.0,66.7,61.0,71.2,63.5,53.0,94,90,75,30.00,29.76,7,1,7,1.83
2013-8-6,78.0,66.0,57.0,69.8,61.6,53.8,94,86,75,29.84,29.63,12,1,12,1.83
2013-8-7,71.0,64.4,59.0,60.3,54.3,43.9,94,73,39,30.00,29.75,12,1,12,0.12
2013-8-8,72.0,64.2,55.0,61.9,57.0,50.6,94,78,60,30.04,29.95,7,1,7,0.12
2013-8-9,71.0,64.8,57.0,60.4,54.1,46.5,92,71,43,30.10,29.96,11,1,11,0.12
2013-8-10,71.0,63.8,57.0,58.1,54.6,51.1,89,73,51,30.16,30.05,7,0,7,0.12
2013-8-11,76.0,66.5,59.0,67.6,60.7,53.5,94,83,58,30.07,29.96,4,0,4,0.09
2013-8-12,75.0,67.2,59.0,62.6,56.0,48.6,92,70,41,30.06,29.96,12,1,12,0.09
2013-8-13,71.0,62.7,54.0,56.1,49.1,35.4,90,65,28,30.18,30.05,10,1,10,0.09
2013-8-14,72.0,62.3,52.0,58.1,52.2,47.0,90,71,45,30.17,30.05,6,1,6,0.09
2013-8-15,74.0,63.6,53.0,64.3,55.9,47.3,94,77,58,30.11,30.03,6,0,6,0.09
2013-8-16,77.0,67.1,60.0,62.8,57.2,52.2,93,73,44,30.17,30.09,7,1,7,0.09
2013-8-17,77.0,66.6,56.0,61.7,54.8,49.6,93,68,44,30.17,30.06,11,1,11,0.09
2013-8-18,79.0,68.8,57.0,61.3,56.1,51.2,89,66,43,30.12,29.96,14,2,14,0.09
2013-8-19,84.0,75.4,66.0,69.6,64.0,55.8,84,68,57,30.00,29.86,12,2,12,0.01
2013-8-20,88.0,79.0,71.0,72.0,68.7,63.6,86,71,56,29.91,29.82,11,2,11,0.01
2013-8-21,84.0,77.2,69.0,77.2,70.2,56.2,91,80,44,30.00,29.80,9,1,9,0.01
2013-8-22,81.0,71.6,62.0,62.6,50.2,37.2,82,51,23,30.12,29.98,12,2,12,0.01
2013-8-23,84.0,70.6,55.0,65.9,57.0,47.3,83,64,39,30.14,29.99,10,1,10,0.01
2013-8-24,88.0,79.0,70.0,71.0,66.8,61.7,78,67,51,30.06,29.89,20,3,20,0.01
2013-8-25,92.0,84.7,78.0,74.1,71.1,66.9,73,64,52,29.99,29.89,14,3,14,0.01
2013-8-26,93.0,85.0,77.0,76.5,73.6,70.8,86,70,52,29.98,29.80,9,2,9,0.01
2013-8-27,88.0,82.1,75.0,77.0,73.2,68.1,86,75,61,29.92,29.77,10,1,10,0.01
2013-8-28,86.0,75.4,69.0,74.5,67.2,57.8,92,77,48,30.02,29.90,7,1,7,0.49
2013-8-29,86.0,77.2,69.0,83.1,73.5,65.3,94,89,72,30.00,29.82,8,1,8,1.26
2013-8-30,81.0,74.5,68.0,75.8,66.9,59.8,94,78,55,29.95,29.80,15,2,15,1.27
2013-8-31,84.0,71.2,62.0,71.1,64.8,58.7,94,82,53,29.90,29.69,17,1,17,1.27
2013-9-1,69.0,66.3,60.0,65.2,59.5,50.6,94,79,65,29.97,29.73,12,2,12,0.15
2013-9-2,63.0,58.8,54.0,53.8,51.5,48.3,85,77,66,30.08,29.95,9,1,9,0.16
2013-9-3,72.0,60.6,48.0,60.8,54.1,43.1,94,80,60,30.07,29.96,6,1,6,0.16
2013-9-4,78.0,69.2,57.0,67.3,59.7,53.6,94,73,53,30.14,29.98,9,1,9,0.16
2013-9-5,78.0,68.4,57.0,64.8,57.8,50.6,86,70,44,30.20,30.06,6,1,6,0.16
2013-9-6,87.0,76.9,67.0,72.2,65.9,60.7,94,71,44,30.08,29.83,11,2,11,0.16
2013-9-7,88.0,77.5,68.0,70.9,65.0,54.5,92,68,42,30.02,29.83,15,2,15,0.16
2013-9-8,70.0,65.6,63.0,60.9,55.8,47.1,84,71,55,30.05,29.85,4,1,4,0.16
2013-9-9,85.0,73.4,65.0,78.1,70.1,58.7,94,90,76,29.88,29.61,9,1,9,0.20
2013-9-10,80.0,72.0,66.0,72.2,65.4,56.8,94,81,51,29.97,29.74,14,1,14,0.22
2013-9-11,79.0,69.9,62.0,64.6,55.3,40.5,93,64,27,30.04,29.96,16,1,16,0.22
2013-9-12,69.0,62.2,53.0,55.5,46.5,37.0,85,59,33,30.21,30.02,18,2,18,0.00
2013-9-13,66.0,55.4,44.0,50.2,43.5,38.2,91,66,39,30.26,30.04,5,1,5,0.00
2013-9-14,69.0,57.0,48.0,60.3,50.6,42.1,94,80,50,30.06,29.88,9,1,9,0.48
2013-9-15,62.0,57.0,49.0,58.3,53.0,43.7,94,87,65,30.29,29.86,17,2,17,0.81
2013-9-16,62.0,50.8,40.0,46.4,40.8,33.8,94,71,37,30.38,30.19,9,1,9,0.81
2013-9-17,66.0,55.5,45.0,57.3,50.0,40.1,94,82,62,30.22,29.91,20,2,20,0.82
2013-9-18,71.0,65.2,59.0,69.2,63.4,56.3,94,94,94,29.93,29.68,9,1,9,0.87
2013-9-19,71.0,68.0,63.0,69.2,66.2,61.2,94,94,94,29.79,29.62,14,1,14,1.82
2013-9-20,63.0,58.3,51.0,61.2,53.8,47.0,94,85,61,29.91,29.75,13,2,13,0.01
2013-9-21,59.0,52.6,47.0,50.3,47.1,43.3,94,82,62,29.98,29.88,6,1,6,0.01
2013-9-22,68.0,56.6,45.0,56.2,49.7,41.3,94,79,60,29.95,29.82,16,2,16,0.01
2013-9-23,70.0,62.4,55.0,54.6,51.3,47.9,82,68,50,29.93,29.84,15,2,15,0.01
2013-9-24,71.0,60.0,51.0,57.4,52.2,47.0,93,77,51,29.96,29.89,5,1,5,0.01
2013-9-25,71.0,59.8,49.0,60.3,50.7,44.6,94,74,50,29.96,29.84,12,1,12,0.01
2013-9-26,77.0,66.2,56.0,59.7,55.4,48.4,85,69,52,29.92,29.80,19,2,19,0.01
2013-9-27,80.0,72.0,66.0,66.2,60.4,57.1,86,68,51,29.90,29.77,22,3,22,0.01
2013-9-28,74.0,61.7,49.0,63.2,54.2,44.0,94,77,57,29.91,29.61,11,3,11,0.01
2013-9-29,71.0,58.6,46.0,53.7,45.2,40.5,91,65,34,29.93,29.74,14,2,14,0.01
2013-9-30,75.0,66.6,59.0,51.9,47.4,40.8,62,50,40,29.76,29.57,19,4,19,0.01
2013-10-1,71.0,64.5,49.0,51.2,40.3,18.6,67,45,15,29.95,29.55,17,2,17,0.01
2013-10-2,72.0,56.5,43.0,53.3,40.7,22.4,94,62,17,30.03,29.83,18,2,18,0.15
2013-10-3,57.0,55.5,54.0,55.3,53.8,52.3,94,94,94,29.94,29.83,11,2,11,0.26
2013-10-4,59.0,55.9,54.0,55.3,53.7,51.3,94,92,85,29.99,29.84,12,3,12,0.28
2013-10-5,59.0,54.7,48.0,57.3,52.9,45.2,94,94,89,29.89,29.71,15,1,15,0.30
2013-10-6,52.0,48.7,45.0,50.3,47.0,42.4,94,94,93,29.82,29.66,9,1,9,0.31
2013-10-7,62.0,50.3,42.0,51.4,43.6,35.9,94,80,39,29.95,29.78,9,1,9,0.32
2013-10-8,73.0,59.9,46.0,49.9,44.8,39.3,93,62,34,29.94,29.76,22,4,22,0.33
2013-10-9,73.0,64.0,55.0,52.2,48.0,43.9,78,57,41,30.01,29.88,10,3,10,0.34
2013-10-10,74.0,61.9,52.0,54.6,48.4,44.1,84,63,37,30.01,29.85,19,3,19,0.34
2013-10-11,72.0,65.5,58.0,57.3,51.9,47.8,86,63,47,29.86,29.59,30,4,30,0.60
2013-10-12,61.0,51.7,45.0,56.1,44.0,39.2,84,75,62,30.13,29.66,20,3,20,0.61
2013-10-13,57.0,46.8,37.0,43.1,36.3,30.1,89,69,38,30.39,30.13,8,1,8,0.61
2013-10-14,53.0,46.7,38.0,47.3,38.1,33.0,94,73,52,30.36,29.94,10,2,10,0.61
2013-10-15,52.0,49.3,46.0,50.3,47.6,43.4,94,94,94,29.97,29.65,18,3,18,1.13
2013-10-16,52.0,46.0,39.0,44.4,40.1,33.3,94,81,57,29.93,29.82,9,2,9,1.13
2013-10-17,54.0,45.9,39.0,47.3,41.7,33.6,94,86,63,29.85,29.74,16,1,16,1.59
2013-10-18,50.0,43.8,38.0,41.4,36.5,29.3,94,77,50,29.95,29.80,14,2,14,1.75
2013-10-19,47.0,41.2,34.0,41.4,35.7,28.5,94,81,56,29.81,29.66,14,1,14,1.76
2013-10-20,40.0,36.2,33.0,38.4,34.0,28.3,94,92,82,29.84,29.60,15,1,15,1.84
2013-10-21,40.0,35.6,31.0,35.0,24.9,21.0,89,65,52,29.93,29.83,18,2,18,1.84
2013-10-22,41.0,34.4,27.0,33.7,28.8,21.4,90,80,65,30.00,29.90,12,1,12,1.85
2013-10-23,38.0,35.3,34.0,33.1,26.3,17.3,89,71,49,30.06,29.94,15,2,15,1.85
2013-10-24,42.0,37.7,33.0,31.4,26.8,20.2,78,65,51,30.26,30.06,9,2,9,1.85
2013-10-25,55.0,44.0,31.0,42.5,34.0,24.9,80,68,56,30.26,29.73,14,3,14,1.85
2013-10-26,50.0,42.5,37.0,39.5,28.7,25.1,70,58,47,30.07,29.74,18,3,18,1.85
2013-10-27,54.0,42.2,33.0,33.0,28.7,24.6,77,60,40,30.12,29.77,19,3,19,1.85
2013-10-28,42.0,36.2,31.0,29.1,21.2,12.3,73,56,31,30.41,30.11,14,4,14,1.85
2013-10-29,38.0,35.5,31.0,35.6,27.8,22.7,91,73,61,30.37,30.05,7,2,7,1.86
2013-10-30,48.0,43.4,37.0,46.4,41.7,34.6,94,94,91,30.07,29.64,6,1,6,2.41
2013-10-31,48.0,43.3,40.0,46.4,41.7,38.4,94,94,93,29.65,29.38,9,2,9,2.47
2013-11-1,50.0,42.4,38.0,39.4,36.6,30.8,94,81,57,29.83,29.39,12,2,12,2.47
2013-11-2,48.0,39.1,33.0,36.2,30.2,25.9,83,71,48,30.06,29.81,11,1,11,2.47
2013-11-3,54.0,44.2,33.0,35.8,31.4,27.2,86,63,40,30.08,29.83,30,5,30,2.47
2013-11-4,49.0,44.4,34.0,45.4,36.5,29.0,94,75,53,30.10,29.80,25,4,25,0.14
2013-11-5,42.0,34.9,29.0,36.3,29.8,23.3,94,82,53,30.20,30.00,10,1,10,0.22
2013-11-6,38.0,33.3,30.0,32.5,29.4,24.8,94,86,76,30.11,29.98,8,1,8,0.44
2013-11-7,37.0,30.6,24.0,31.7,26.4,19.0,90,84,77,30.20,30.09,13,1,13,0.45
2013-11-8,43.0,34.2,24.0,39.4,28.4,18.6,94,80,62,30.15,29.56,20,3,20,0.49
2013-11-9,43.0,40.5,38.0,39.4,33.5,25.1,94,77,58,30.15,29.57,26,4,26,0.50
2013-11-10,42.0,38.2,33.0,31.1,29.0,25.0,77,69,59,30.28,30.05,16,3,16,0.50
2013-11-11,37.0,25.0,18.0,30.1,12.7,7.1,76,60,47,30.66,30.06,25,5,25,0.50
2013-11-12,34.0,22.6,14.0,19.4,9.4,5.4,73,57,40,30.70,30.35,12,2,12,0.50
2013-11-13,51.0,36.4,24.0,33.2,24.1,12.9,71,61,47,30.36,29.81,17,4,17,0.50
2013-11-14,50.0,41.1,34.0,38.3,33.3,27.2,80,74,63,29.83,29.71,11,2,11,0.50
2013-11-15,53.0,41.7,29.0,40.5,33.6,23.9,93,74,52,29.82,29.59,16,3,16,0.50
2013-11-16,46.0,45.0,42.0,44.4,41.5,34.1,94,88,68,29.61,29.24,12,3,12,0.63
2013-11-17,45.0,40.6,32.0,43.4,36.4,24.0,94,85,72,29.79,29.26,22,4,22,0.63
2013-11-18,33.0,29.9,24.0,25.0,21.3,16.6,77,70,60,30.21,29.78,25,3,25,0.63
2013-11-19,45.0,35.1,21.0,30.6,24.7,15.2,82,67,52,30.22,29.85,29,5,29,0.63
2013-11-20,46.0,43.1,39.0,34.3,29.2,24.1,81,59,46,30.01,29.82,23,5,23,0.63
2013-11-21,40.0,32.3,25.0,36.9,26.5,15.1,94,79,64,30.46,29.99,19,4,19,0.63
2013-11-22,34.0,23.8,15.0,16.9,10.2,1.8,73,58,27,30.58,30.35,17,4,17,0.63
2013-11-23,19.0,13.2,9.0,7.6,2.1,-5.2,77,62,38,30.77,30.56,19,3,19,0.63
2013-11-24,32.0,21.9,9.0,16.6,9.2,-0.4,70,58,46,30.63,29.89,26,6,26,0.63
2013-11-25,38.0,34.0,30.0,29.5,23.2,15.3,80,65,54,30.04,29.82,22,4,22,0.63
2013-11-26,31.0,21.8,14.0,18.7,9.0,3.0,65,57,46,30.33,30.02,23,4,23,0.63
2013-11-27,26.0,18.9,8.0,10.8,6.7,-1.0,73,59,47,30.33,30.01,14,3,14,0.63
2013-11-28,27.0,25.0,22.0,14.9,11.9,8.5,65,57,51,30.39,30.00,15,3,15,0.00
2013-12-1,35.0,28.3,18.0,26.9,21.1,11.1,85,74,66,30.15,29.88,6,1,6,0.00
2013-12-2,39.0,33.8,27.0,34.4,29.9,22.0,94,86,74,29.89,29.56,16,3,16,0.13
2013-12-3,36.0,34.9,32.0,34.4,33.3,30.5,94,94,92,29.78,29.56,10,3,10,0.28
2013-12-4,33.0,28.5,17.0,30.5,26.0,10.1,94,90,74,29.77,29.44,10,2,10,0.28
2013-12-5,17.0,8.7,2.0,10.1,0.3,-6.8,74,68,64,30.26,29.64,8,1,8,0.28
2013-12-6,7.0,0.4,-5.0,-0.7,-8.6,-14.4,70,65,62,30.56,30.24,12,2,12,0.28
2013-12-7,3.0,-4.2,-12.0,-4.6,-13.4,-20.8,79,64,58,30.64,30.47,12,2,12,0.28
2013-12-8,14.0,6.8,-7.0,7.5,0.0,-15.1,77,73,67,30.48,29.97,9,2,9,0.28
2013-12-9,11.0,2.8,-2.0,4.3,-5.7,-11.8,75,67,60,30.04,29.80,18,3,18,0.28
2013-12-10,9.0,5.7,1.0,2.3,-1.9,-6.2,78,70,61,30.23,29.71,16,2,16,0.28
2013-12-11,3.0,-1.6,-7.0,-5.2,-10.9,-16.3,71,64,57,30.49,30.21,12,3,12,0.28
2013-12-12,19.0,10.8,-1.0,12.4,2.7,-9.6,75,69,63,30.23,30.08,9,1,9,0.28
2013-12-13,19.0,13.0,10.0,11.5,6.1,3.8,80,73,69,30.25,30.07,14,4,14,0.28
2013-12-14,16.0,10.7,0.0,8.3,3.9,-7.8,81,74,66,30.24,30.02,12,2,12,0.01
2013-12-15,3.0,0.7,-2.0,-5.0,-9.2,-13.3,73,63,49,30.12,30.03,14,2,14,0.01
2013-12-16,22.0,10.5,1.0,20.5,3.5,-10.3,94,73,58,30.07,29.82,15,3,15,0.01
2013-12-17,32.0,22.7,4.0,30.5,15.7,-5.5,94,75,58,30.07,29.80,26,3,26,0.01
2013-12-18,33.0,22.3,4.0,25.9,16.2,-5.5,86,77,67,30.02,29.59,17,3,17,0.01
2013-12-19,25.0,17.6,15.0,20.6,11.1,5.7,87,75,67,30.06,29.76,18,5,18,0.01
2013-12-20,21.0,15.6,11.0,12.8,9.6,6.3,86,77,67,30.01,29.80,12,3,12,0.01
2013-12-21,22.0,18.8,15.0,15.3,12.5,8.7,82,76,70,29.97,29.80,13,2,13,0.01
2013-12-22,20.0,16.1,10.0,15.0,10.7,3.9,85,79,73,30.18,29.90,13,3,13,0.01
2013-12-23,10.0,1.5,-8.0,4.5,-5.9,-17.6,78,70,62,30.44,30.17,9,3,9,0.01
2013-12-24,12.0,0.4,-17.0,7.3,-7.9,-26.7,81,68,55,30.85,30.05,17,3,17,0.01
2013-12-25,25.0,17.1,12.0,19.9,10.6,4.3,84,75,66,30.09,29.98,18,2,18,0.01
2013-12-26,26.0,20.6,15.0,19.8,14.1,7.6,79,76,72,30.12,30.00,6,1,6,0.01
2013-12-27,38.0,27.9,11.0,32.4,23.6,2.8,94,84,69,30.11,29.82,16,3,16,0.02
2013-12-28,42.0,30.9,18.0,34.2,27.1,11.0,94,86,65,29.99,29.63,24,4,24,0.08
2013-12-29,17.0,-0.2,-15.0,10.7,-10.3,-26.1,78,62,49,30.71,29.98,25,5,25,0.08
2013-12-30,6.0,-5.0,-16.0,0.2,-13.4,-27.4,80,66,56,30.71,30.10,7,1,7,0.08
2013-12-31,-2.0,-6.8,-14.0,-10.0,-15.9,-24.5,73,64,58,30.64,30.10,7,2,7,0.08
2014-1-1,2.0,-2.6,-9.0,-7.4,-11.7,-17.6,70,64,60,30.43,30.32,10,3,10,0.08
2014-1-2,3.0,-5.4,-14.0,-10.3,-17.0,-24.2,66,57,44,30.86,30.27,9,2,9,0.08